Eastsound, WA
on Tuesday, November 27, 2012

Tuesday
Previous Day Next Day
Daily Summary
 ActualAverage (KBLI)Record (KBLI)
Temperature
Mean Temperature °F 41°F  
Max Temperature 44°F 47°F 60°F (2011)
Min Temperature 35°F 34°F 4°F (1985)
Degree Days
Heating Degree Days 26 24  
Month to date heating degree days 578  
Cooling Degree Days 0 0  
Month to date cooling degree days 0  
Year to date cooling degree days 42  
Moisture
Dew Point 33°F   
Average Humidity 74    
Maximum Humidity 93    
Minimum Humidity 61    
Precipitation
Precipitation 0.00 in 0.18 in 0.75 in (1995)
Month to date precipitation 5.24  
Year to date precipitation 31.05  
Wind
Wind Speed 2 mph   
Max Wind Speed 7 mph   
Max Gust Speed mph   
Visibility 10 miles   
Events     

Key: T is trace of precipitation, MM is missing value
Source: NWS Daily Summary
Time(PST)TemperatureDew PointHumidity Pressure Visibility Wind DirectionWind SpeedGust SpeedPrecipitationEvents Conditions
12:15 AM 41.0°F 32.0°F 70% 30.08 in 10.0 miles NNE 5.8 mph - N/A   Clear
12:35 AM 41.0°F 32.0°F 70% 30.08 in 10.0 miles NNE 5.8 mph - N/A   Clear
12:55 AM 41.0°F 32.0°F 70% 30.08 in 10.0 miles Calm Calm - N/A   Clear
1:15 AM 41.0°F 32.0°F 70% 30.08 in 10.0 miles NNE 4.6 mph - N/A   Clear
1:35 AM 41.0°F 32.0°F 70% 30.07 in 10.0 miles NE 3.5 mph - N/A   Clear
1:55 AM 41.0°F 32.0°F 70% 30.07 in 10.0 miles NNE 4.6 mph - N/A   Clear
2:15 AM 41.0°F 32.0°F 70% 30.07 in 10.0 miles NNE 3.5 mph - N/A   Clear
2:35 AM 41.0°F 32.0°F 70% 30.08 in 10.0 miles Calm Calm - N/A   Clear
2:55 AM 39.2°F 32.0°F 75% 30.08 in 10.0 miles Calm Calm - N/A   Clear
3:15 AM 39.2°F 32.0°F 75% 30.07 in 10.0 miles Calm Calm - N/A   Clear
3:55 AM 39.2°F 32.0°F 75% 30.06 in 10.0 miles Calm Calm - N/A   Mostly Cloudy
4:35 AM 39.2°F 32.0°F 75% 30.06 in 10.0 miles Calm Calm - N/A   Clear
4:55 AM 37.4°F 32.0°F 81% 30.06 in 10.0 miles Calm Calm - N/A   Clear
5:15 AM 35.6°F 32.0°F 87% 30.07 in 10.0 miles Calm Calm - N/A   Clear
5:35 AM 35.6°F 32.0°F 87% 30.07 in 10.0 miles Calm Calm - N/A   Clear
5:55 AM 35.6°F 32.0°F 87% 30.06 in 10.0 miles Calm Calm - N/A   Mostly Cloudy
6:15 AM 35.6°F 32.0°F 87% 30.06 in 10.0 miles Calm Calm - N/A   Partly Cloudy
6:35 AM 37.4°F 33.8°F 87% 30.06 in 10.0 miles Calm Calm - N/A   Clear
6:55 AM 39.2°F 35.6°F 87% 30.06 in 10.0 miles Calm Calm - N/A   Clear
7:15 AM 39.2°F 33.8°F 81% 30.06 in 10.0 miles North - - N/A   Clear
7:35 AM 37.4°F 33.8°F 87% 30.06 in 10.0 miles Calm Calm - N/A   Clear
7:55 AM 37.4°F 33.8°F 87% 30.06 in 10.0 miles Calm Calm - N/A   Clear
8:15 AM 35.6°F 33.8°F 93% 30.07 in 10.0 miles Calm Calm - N/A   Clear
8:35 AM 37.4°F 33.8°F 87% 30.07 in 10.0 miles Calm Calm - N/A   Clear
8:55 AM 37.4°F 33.8°F 87% 30.07 in 10.0 miles Calm Calm - N/A   Clear
9:15 AM 37.4°F 35.6°F 93% 30.07 in 10.0 miles Calm Calm - N/A   Clear
9:35 AM 39.2°F 35.6°F 87% 30.07 in 10.0 miles Calm Calm - N/A   Clear
9:55 AM 41.0°F 35.6°F 81% 30.07 in 10.0 miles Calm Calm - N/A   Clear
10:15 AM 41.0°F 35.6°F 81% 30.07 in 10.0 miles Calm Calm - N/A   Clear
10:35 AM 42.8°F 35.6°F 76% 30.06 in 10.0 miles Calm Calm - N/A   Clear
10:55 AM 44.6°F 35.6°F 71% 30.06 in 10.0 miles Calm Calm - N/A   Clear
11:15 AM 44.6°F 33.8°F 66% 30.05 in 10.0 miles ENE 3.5 mph - N/A   Clear
11:35 AM 42.8°F 35.6°F 76% 30.04 in 10.0 miles ENE 3.5 mph - N/A   Clear
11:55 AM 44.6°F 35.6°F 71% 30.03 in 10.0 miles ENE 4.6 mph - N/A   Clear
12:15 PM 44.6°F 33.8°F 66% 30.04 in 10.0 miles ENE 3.5 mph - N/A   Clear
12:35 PM 44.6°F 33.8°F 66% 30.03 in 10.0 miles ENE 4.6 mph - N/A   Mostly Cloudy
12:55 PM 44.6°F 33.8°F 66% 30.02 in 10.0 miles Calm Calm - N/A   Mostly Cloudy
1:15 PM 44.6°F 32.0°F 61% 30.01 in 10.0 miles ENE 4.6 mph - N/A   Clear
1:35 PM 44.6°F 32.0°F 61% 30.01 in 10.0 miles ENE 4.6 mph - N/A   Clear
1:55 PM 44.6°F 33.8°F 66% 30.01 in 10.0 miles Calm Calm - N/A   Clear
2:15 PM 44.6°F 33.8°F 66% 30.00 in 10.0 miles Calm Calm - N/A   Clear
2:35 PM 44.6°F 33.8°F 66% 30.00 in 10.0 miles Calm Calm - N/A   Clear
3:15 PM 44.6°F 33.8°F 66% 29.99 in 10.0 miles Calm Calm - N/A   Clear
3:35 PM 42.8°F 35.6°F 76% 29.99 in 10.0 miles Calm Calm - N/A   Clear
3:55 PM 44.6°F 32.0°F 61% 29.98 in 10.0 miles Calm Calm - N/A   Clear
4:15 PM 44.6°F 32.0°F 61% 29.99 in 10.0 miles Calm Calm - N/A   Clear
4:55 PM 41.0°F 35.6°F 81% 29.98 in 10.0 miles Calm Calm - N/A   Clear
5:15 PM 42.8°F 35.6°F 76% 29.97 in 10.0 miles Calm Calm - N/A   Clear
5:35 PM 44.6°F 32.0°F 61% 29.97 in 10.0 miles ENE 4.6 mph - N/A   Clear
5:55 PM 44.6°F 32.0°F 61% 29.96 in 10.0 miles ENE 4.6 mph - N/A   Clear
6:15 PM 44.6°F 32.0°F 61% 29.96 in 10.0 miles ENE 3.5 mph - N/A   Clear
6:35 PM 44.6°F 32.0°F 61% 29.95 in 10.0 miles NNE 3.5 mph - N/A   Clear
6:55 PM 44.6°F 32.0°F 61% 29.96 in 10.0 miles East 3.5 mph - N/A   Clear
7:15 PM 44.6°F 32.0°F 61% 29.95 in 10.0 miles ENE 6.9 mph - N/A   Clear
7:35 PM 42.8°F 32.0°F 66% 29.94 in 10.0 miles ENE 4.6 mph - N/A   Clear
7:55 PM 42.8°F 32.0°F 66% 29.95 in 10.0 miles Calm Calm - N/A   Clear
8:15 PM 41.0°F 32.0°F 70% 29.94 in 10.0 miles Calm Calm - N/A   Clear
8:35 PM 41.0°F 32.0°F 70% 29.94 in 10.0 miles Calm Calm - N/A   Clear
8:55 PM 41.0°F 32.0°F 70% 29.93 in 10.0 miles Calm Calm - N/A   Partly Cloudy
9:15 PM 41.0°F 32.0°F 70% 29.93 in 10.0 miles Calm Calm - N/A   Scattered Clouds
9:35 PM 41.0°F 32.0°F 70% 29.93 in 10.0 miles Calm Calm - N/A   Scattered Clouds
9:55 PM 41.0°F 32.0°F 70% 29.92 in 10.0 miles Calm Calm - N/A   Partly Cloudy
10:15 PM 41.0°F 33.8°F 76% 29.92 in 10.0 miles Calm Calm - N/A   Clear
10:35 PM 41.0°F 33.8°F 76% 29.92 in 10.0 miles Calm Calm - N/A   Clear
10:55 PM 39.2°F 33.8°F 81% 29.93 in 10.0 miles Calm Calm - N/A   Clear
11:15 PM 39.2°F 33.8°F 81% 29.92 in 10.0 miles Calm Calm - N/A   Clear
11:35 PM 41.0°F 33.8°F 76% 29.90 in 10.0 miles Calm Calm - N/A   Clear
11:55 PM 42.8°F 32.0°F 66% 29.90 in 10.0 miles Calm Calm - N/A   Clear
Moon Phase
Nov. 27 Nov. 28 Dec. 06 Dec. 13 Dec. 20
Sunrise:07:38 AM (PST) Moon Rise:03:56 PM (PST)11/27
Sunset:04:19 PM (PST) Moon Set:06:46 AM (PST)11/27

Copyright © 2014 The Weather Underground, Inc.